Location: Unspecified
(32.6095°N, 0.0000°E)
Time: 23:35:09
(UTC+00:00)

ISS - Visible Passes

Search period start: 15 October 2019 00:00
Search period end: 25 October 2019 00:00
Orbit: 411 x 421 km, 51.6° (Epoch: 15 October)

Date Brightness Start Highest point End Pass type
(mag) Time Alt. Az. Time Alt. Az. Time Alt. Az.
21 Oct -1.0 05:33:49 10° S 05:36:26 21° SE 05:39:02 10° ENE visible
22 Oct -0.4 04:47:06 10° SE 04:48:02 11° SE 04:48:58 10° ESE visible
23 Oct -3.6 05:32:29 10° SW 05:35:50 79° SE 05:39:11 10° NE visible
24 Oct -2.3 04:45:02 16° SSW 04:47:20 37° SE 04:50:28 10° ENE visible
